BRASILSAT B3

Last updated on Aug. 16, 2018, 12:20 a.m. UTC

1 25152U 98006A   18227.54053428 -.00000067  00000-0  00000+0 0  9992
2 25152   4.8424  67.2628 0000389 354.1165   6.7174  0.99214496 75220
UTC
Height (km)
Latitude
Longitude
Inclination
Orbital Period
UTC large
Height (km)
Speed (km/s)
/
Latitude / Longitude
Inclination (degrees)
Orbital Period (minutes)
Azimuth
Elevation
Range (km)
Doppler Factor
iOS Compass Heading
iOS Angle

Next 30 passes for location: Hong Kong

Rise time Rise Azimuth (degrees) Set time Set Azimuth (degrees) Duration Max altitude (degrees)

No matching passes for this satellites